CAPE
1691 1492 1671 1835 2037 1810 1569 1497 1576 1586 1662 1603 1605 1812 1810 1970 2249 2383 2336 2334 2266 2108 2156 2018 2033 2070 1980 1878 1804 1798 1808 2025 2073 1998 2063 2027 1970 2577 4979 4750 4484 4505 4485 4233 3584 3161 2594 2464 2648 2788 2847 2890 2979 3038 2811 2695 2086 2181 1773 1721 1536 1481 1563 1588 1855 1689 1820 1908 1910 2055 2234 2386 2411 2351 2075 1872 1630 1448 1809 1668 1710 1569 1308 1808 1809
1668 1823 1751 1983 1868 1762 1754 1654 1642 1792 1632 1895 1947 1784 1949 2240 2549 2578 2513 2531 2380 2257 1918 1998 1881 1754 1778 1762 1654 1657 1776 1765 1811 1882 1904 1874 1823 1799 4036 4959 4530 4655 4715 4810 3286 2868 2864 2809 2908 3027 3083 3280 3322 3337 2922 2734 1868 1685 1750 1732 1533 1582 1550 1518 1592 1786 1886 1999 2017 1966 2135 2307 2500 2468 2414 2207 1796 1765 1548 1807 1967 1780 1583 1910 2150
1995 1985 1756 1828 1809 1817 1604 1786 1666 1538 2106 2006 1968 1934 2292 2640 2653 2664 2685 2523 2315 2162 2023 1845 1918 1648 1708 1420 1603 1630 1648 1711 1693 1701 1560 1735 1846 1908 1662 5277 4684 4566 4549 4862 3792 3108 3156 3144 3126 3230 3298 3157 3062 2967 2664 2339 1968 1813 1489 1490 1631 1479 1919 1743 1677 1826 1893 1996 1927 2047 2027 2096 2249 2294 2350 2313 2119 1822 1590 1516 1750 1867 1840 1828 1978
2340 2047 1777 1871 1739 1650 1689 1771 1901 2134 2130 1990 2179 2158 2472 2777 2844 2713 2430 2311 2280 2237 2137 1944 1939 1741 1762 1614 1711 1620 1654 1785 1753 1876 1664 1684 1740 1721 1715 1780 4938 4515 4450 4332 4436 3594 3299 3310 3399 3597 3512 2530 2464 2819 2936 2287 2106 1767 1508 1554 1367 1642 1911 2166 2088 1959 1981 1965 2052 1951 2186 2176 2000 2069 2088 2223 2239 1965 2026 1825 1834 1801 1788 1942 1928
2280 2115 2213 1950 1928 1903 1621 1646 1850 2110 2006 2182 2274 2592 2692 2842 2891 2556 2769 2513 2332 2255 2058 1896 1873 2076 1828 1918 1492 1474 1594 1723 2120 1985 1903 1653 1514 1076 1113 1386 1421 3228 3864 3438 3447 3904 3773 3512 3591 3650 2852 2403 2602 2781 2301 2246 2199 1756 1342 1666 1444 1614 1686 2015 2260 2220 2141 1996 1898 1928 1956 2176 1971 1953 1974 2101 2199 2207 1994 1855 1836 1824 1491 1884 1997
2314 2223 2060 1876 1977 2035 1949 1750 1919 2244 2264 2313 1862 2372 2689 2804 2788 2602 2561 2459 2362 2384 2220 2175 2131 2061 1914 1931 1458 1737 1825 1975 2346 2051 1871 1258 1175 1328 1675 1847 1932 2296 2195 2928 2751 2753 2820 3536 3955 3554 2589 2456 2313 2228 2097 1881 1694 1245 1458 1256 1200 1550 1828 1992 2096 2196 2182 2011 1864 1792 1866 1960 1964 1981 1901 1911 2041 2143 1927 2013 2012 2024 1772 1577 1837
2502 2341 2215 2102 2146 2005 1638 1630 1942 2226 1971 2043 2042 2713 2758 2628 2776 2636 2739 2577 2546 2406 2535 2511 2360 2126 1865 1664 1610 1703 1890 2157 2371 2331 1584 2235 2315 2148 2162 1890 1983 2209 2208 2102 2085 2167 2470 2490 2664 3542 2776 2878 2944 2679 2503 1664 1555 1345 1609 1621 1491 1515 1509 1952 1998 1982 2021 1950 1948 1897 1822 1770 1742 1874 1835 1844 1966 1888 1595 1660 1613 1637 1759 1277 1433
2560 2657 2350 2160 2149 1790 1716 2113 2589 2343 1920 2242 2690 2711 2951 2718 3005 2854 2902 2688 2609 2435 2432 2459 2319 1834 1667 1596 2057 2331 2186 2227 2238 1510 1395 1746 2354 3119 2864 2240 1924 2162 2481 1988 2028 1844 2606 2636 2629 2781 2839 1992 2034 2515 2528 2180 1818 1680 1610 1699 1588 1459 1524 1715 1654 1853 1856 1884 1767 1701 1602 1466 1437 1829 1781 1883 1954 1457 1465 1582 1692 1710 1516 1428 1571
2642 2757 2450 2188 2102 1852 2051 2019 2337 2056 2001 2228 2986 2958 2979 2832 3343 2998 2810 3139 2692 2396 2330 2387 1925 1338 1331 1446 1651 1854 2276 2176 1843 1906 2125 1861 2490 2720 2784 2308 2203 2161 2505 2509 2257 2108 2957 2797 2920 2708 2702 1622 1554 1841 1957 2249 2071 2087 1568 1467 1664 1258 1328 1400 1868 1538 1781 1723 1647 1436 1470 1462 1432 1667 1500 1739 1606 1242 1309 1385 1503 1632 1612 1298 1471
2548 2505 2496 2191 2281 2213 2270 2299 2293 1994 2215 2584 3038 2955 3123 3125 3251 3580 3097 3022 2740 2513 2346 2143 1257 1429 1635 1789 1931 1837 1694 1586 1690 1464 1916 2494 2824 3042 3032 2915 2446 2040 2119 2150 2027 2126 1898 2910 3098 2945 2898 1833 1218 1288 1603 2002 1968 2076 2059 1757 1627 1410 1376 1306 1632 1831 1719 1692 1636 1438 1524 1540 1496 1160 1558 1678 1435 1036 1080 1114 1282 1328 1434 1557 1324
2299 2472 2371 2245 2024 2427 2613 2851 2535 2611 2509 2580 2859 3378 3391 3386 3308 3232 3630 3559 3016 2834 2326 1862 1454 1389 1502 1750 1796 1841 1816 1757 2010 906 1468 2438 3047 2847 2888 2928 2913 2563 2498 2563 2330 2457 2411 2517 2199 2225 2130 2301 2120 1220 1192 1455 1482 1684 1561 1470 1383 1461 1263 1340 1045 1336 1346 1408 1547 1057 1281 1395 1512 1275 1385 1248 1092 809 728 977 883 1062 1314 1395 1456
2300 2179 2284 2254 2117 2465 2623 2646 2347 2661 2479 2518 2618 2914 3579 3692 3787 3163 2804 2875 2678 2891 1830 1560 1394 1336 1700 2242 1857 1607 1366 1047 1178 1882 2382 2744 3291 2986 2897 2668 2837 2712 2284 2374 2446 2233 2218 2804 3207 2983 2719 1895 2079 2014 1414 1624 1358 1262 1096 1199 1508 1578 1567 1197 1029 1244 1243 1352 1317 775 956 1138 1322 1033 1153 1300 1245 892 677 928 833 924 1092 1200 1367
2239 2161 1972 2319 2319 2869 3206 3050 2358 2602 2872 2719 2849 3160 3593 3264 3314 3720 2867 2379 2496 2145 1418 1861 1655 2327 2536 2139 1240 1404 920 1212 1170 1968 2474 2667 3114 3161 3162 3195 3123 2855 2788 2337 2506 2804 2271 2697 2992 3153 3155 2600 1863 2230 1914 1521 1332 1465 1232 1496 1510 1358 1510 1331 1006 970 1130 724 927 1017 1008 1007 1145 1164 1034 1250 940 696 807 851 866 1002 1064 1085 1194
2081 2216 2007 2088 2259 2538 3146 3153 2512 2697 3086 3151 3346 3324 3690 3167 3033 2812 3089 3006 2561 1894 1784 1710 1812 1878 2300 2159 2158 1164 1316 1258 1252 1608 2520 2690 2781 3176 3451 3138 3385 3078 3066 3064 2803 2928 3088 2836 3096 3156 3178 2972 2189 2228 2172 2248 1752 1682 1478 1375 1257 1138 1016 1113 1012 1000 816 948 869 1041 868 896 989 1009 1017 620 592 641 664 591 768 997 1014 1058 1007
2166 2232 1994 1967 2051 2570 2921 2840 2710 2832 2773 2911 3104 3120 3190 3344 3324 3041 2585 2440 2308 2264 2662 2844 2081 2312 2474 2375 1648 504 718 2362 1794 2188 1996 2638 2266 2496 2471 1995 3171 3040 2986 3023 3091 2952 3199 3362 3316 3472 3494 3542 2564 2478 2647 2544 2763 1615 1327 1337 1144 785 909 1220 1121 1176 992 872 795 874 902 910 1128 1103 713 388 400 397 478 571 669 822 1002 1014 1046
1677 1509 1214 1348 1872 2369 2544 2603 3318 3201 2983 3098 3144 2720 2880 2902 2797 2826 3462 2885 2103 2276 2541 2622 2603 2587 2572 1893 1778 578 660 1150 1208 2032 1896 2746 1866 2042 2191 1940 2018 2323 3083 3431 3060 3126 3082 3570 2724 3223 3388 3468 2460 2621 2312 2722 2322 1924 1742 1519 1164 1255 1392 1266 1200 1009 1015 927 863 888 915 857 1050 702 403 378 343 359 417 602 749 847 982 1039 1057
1232 1403 1184 1272 1807 2391 2528 2594 2712 3246 2673 2844 2654 2069 2277 2544 2845 2622 3116 3181 2334 2526 2420 2460 2276 2697 2755 2554 1360 539 701 1291 907 2415 2736 2079 1806 1732 2155 2197 2124 1963 2569 3146 3406 3114 2797 2648 3159 3333 3615 3620 3165 2238 2516 2716 2512 2277 1710 1339 1291 1308 1084 993 1024 963 1056 1057 984 901 698 517 354 262 111 124 176 246 402 629 837 896 920 1044 1142
1162 1376 1276 1320 1862 2394 2544 2530 2390 2546 2397 2128 2289 2642 2614 2013 2188 2824 2817 2986 3463 2908 2467 2204 2095 2310 2399 2388 2634 1630 1917 1820 1144 2119 2491 2454 1850 2009 2481 2172 1524 2391 2944 3539 3742 3355 2933 3124 2643 3180 3403 3264 3473 3697 2579 1872 1916 1930 2407 1719 1322 1194 1128 1059 1104 956 646 480 570 537 510 386 336 240 167 144 192 244 344 519 802 862 904 968 1091
979 1203 1314 1515 1695 2046 2352 2431 2021 2063 2280 2161 2317 2063 1680 1960 2142 2764 2900 3083 3707 3075 2808 2274 2255 2194 1754 1717 1793 2111 1825 1754 1973 1637 2090 1702 2230 2211 2463 2106 2293 2761 2904 3340 3268 2280 2830 2941 2905 3133 2725 3136 3068 3178 3357 2465 1570 2610 2258 1510 1054 1068 1106 948 886 684 555 448 361 330 411 333 361 272 230 199 207 240 321 479 618 787 875 970 1124
1211 1247 1451 1440 1780 1874 2156 2266 1864 1864 1777 1811 1459 1626 1803 2287 2739 3260 3399 3532 3537 2894 2991 2983 2500 1689 1761 2162 2438 2025 2104 2036 1568 1215 1570 1262 2471 1906 2225 2175 2257 2836 3031 2459 2080 2015 2700 3193 2798 2874 2437 2751 2862 3104 2820 2582 2780 2286 2408 1652 1205 1032 977 822 656 376 179 356 358 326 236 230 185 145 154 65 126 179 236 336 517 698 803 1010 1156
1524 1348 1622 1510 1638 1735 1796 1960 1707 1702 1844 1652 1235 1102 1627 2159 3287 3679 3697 3393 3220 3067 3438 3221 2846 1956 1586 2262 2283 2628 1976 2065 2129 2000 1994 2073 1989 1878 1844 1935 1758 2760 3115 2275 2164 2237 2332 2648 3158 3025 2788 2350 2528 2631 2705 3178 3098 2767 2351 2156 1729 1370 929 787 540 206 226 254 254 299 245 282 240 148 144 100 90 74 140 222 395 587 798 865 1013
1920 1576 1470 1565 1555 1613 1607 1691 1647 1414 1402 1304 1083 1064 1437 2119 2586 2381 2940 3875 3513 3100 3086 2852 2733 2330 1759 1658 2476 2393 2539 2286 2805 2589 3126 2284 2008 2433 2342 2158 1903 2134 3141 1950 2444 2502 2554 2549 2417 2842 2720 2522 2462 2465 2563 3046 3189 2311 2547 2289 2132 1599 1056 698 399 241 224 238 203 216 189 165 168 174 171 176 152 148 114 151 282 570 770 918 1004
1706 1747 1418 1467 1480 1532 1364 1286 1336 1332 1375 1265 1099 1014 1020 1412 1475 1788 3071 3616 3263 3230 2972 2913 2558 2483 2131 1904 1970 1648 2679 2166 2634 2840 2409 2553 2731 2714 2127 1999 2213 1244 1946 2344 2611 2713 2812 2675 2808 2808 2780 2920 2843 2852 2844 2529 1773 2644 2367 2186 2051 1988 1493 1032 600 284 172 201 173 149 153 201 128 197 156 113 116 211 270 199 404 695 748 891 1025
1826 1712 1592 1174 1198 1434 1484 1216 1314 1226 1337 1534 1102 828 594 490 825 1511 2568 3173 3472 3394 3173 2769 2204 1687 1795 1502 1426 1213 2596 2886 2622 2670 2621 2740 2752 2374 2134 2265 2526 1563 1907 2934 3089 2474 2866 2770 2890 3105 3407 3279 3100 2889 2758 2884 2773 2133 2247 2246 2203 2273 1878 1504 1283 550 241 182 146 171 216 147 160 153 143 117 131 250 425 595 655 697 793 846 1024
1788 1678 1622 1428 1294 1472 1510 1366 1447 1600 1593 1614 1401 1214 900 618 463 658 1166 2031 3081 3431 3236 2994 2229 1954 1591 1289 1295 1316 2033 2802 2585 2455 2574 2588 2536 2816 2917 2588 1618 1765 1898 2108 2218 2674 2094 2704 3006 3114 3101 3256 3290 2896 2863 3270 3280 1771 1706 2209 2436 2025 2036 1763 1351 888 417 166 164 131 173 176 160 28 134 169 143 222 434 514 716 808 762 869 919
1685 1759 1518 1422 1367 1566 1704 1651 1748 1819 2149 2086 2082 1907 1627 1290 559 744 645 742 1609 2860 3213 2785 2516 2240 2122 1812 1755 1446 1110 2860 2580 2824 2520 2436 2571 2550 2070 2178 1629 1419 1837 2144 2421 2285 3210 2817 3077 3307 3087 3216 2978 3197 3114 2359 2980 1868 1390 2626 2201 2007 2183 1896 1415 1098 501 276 136 115 150 219 146 118 132 129 146 215 274 402 574 762 769 913 994
1586 1757 1622 1441 1551 1630 1688 1740 1678 1903 2123 2206 1973 1782 2069 1940 1002 1061 977 511 911 1951 1834 1437 1564 1732 2023 2107 2091 1570 960 1464 2290 2409 2765 2604 2329 2947 2394 1497 1474 1605 1437 1915 1939 2192 2188 3182 2980 3738 3436 3491 3180 3206 3211 2510 2783 2066 1590 2032 2449 2124 2076 1900 1709 1085 677 411 232 93 171 246 214 127 117 144 124 220 279 358 485 664 645 738 998
1761 1623 1573 1491 1618 1651 1606 1604 1622 1680 1951 2082 1865 1262 1639 1614 1323 945 1232 245 319 1166 1528 1181 890 902 1054 2218 1969 1513 1250 1364 2129 2187 2836 3275 2755 2416 1828 1968 2137 1943 2043 1761 1824 1873 1795 2066 3241 3497 3298 3427 3353 3338 2397 2285 2817 2100 1885 3186 2724 2518 1781 1870 1813 1625 974 644 472 192 186 270 288 153 143 223 155 169 250 376 459 569 582 731 998
1654 1733 1739 1711 1660 1663 1614 1576 1518 1710 1701 1772 1649 1582 1703 1522 967 1281 1052 333 660 1054 1392 1340 1498 1320 1612 1856 1648 1376 1340 1805 1996 1702 2174 2679 3042 2502 1602 1427 2258 2418 2402 2296 2408 1905 1765 1964 2521 3934 2916 3443 3547 3356 2959 3036 2709 2179 3125 3228 2568 2282 1944 1697 1696 1802 1287 1009 674 643 265 294 326 219 131 145 162 191 226 209 357 446 557 726 715
1402 1356 1404 1613 1740 1508 1684 1604 1450 1697 1558 1431 1503 1499 1901 1575 834 1224 1054 982 1079 1299 1374 1315 1221 1269 1645 1376 1297 1157 1175 1351 1755 1712 1745 2809 2174 1835 1880 1980 2480 2423 2596 2809 2599 1880 1582 1656 2659 3332 3986 3066 2747 2974 2908 3124 2075 2400 3380 3416 2413 2453 2211 1429 1623 1705 1515 1051 866 666 592 307 343 373 226 123 117 192 141 195 155 257 421 585 650
1463 1473 1590 1407 1591 1716 1596 1654 1520 1460 1485 1377 1244 1402 1597 1504 885 950 1111 1514 1575 1487 1412 1194 940 781 815 990 1044 1107 1180 1343 1850 1701 1742 1776 1860 1841 1835 2091 2152 2386 2839 3071 2577 2355 1510 1805 2391 3592 3249 3535 2972 2668 2836 3098 2371 2050 3019 2931 2691 2502 2380 1957 1673 1629 1613 1382 1049 738 759 695 435 397 395 274 195 178 197 243 179 178 174 334 492
1511 1592 1524 1469 1449 1504 1502 1281 1188 1136 1138 1165 1104 1311 1677 1172 787 616 502 984 1227 1480 1157 605 452 481 774 1004 1202 1320 1280 1662 2043 2029 1946 2006 2175 2139 1991 1984 2425 2596 3152 3302 3048 2946 2172 1812 1636 2147 3122 3029 3166 2809 2582 2329 2268 1592 2931 2814 3000 2436 3420 2654 1584 1806 1522 1472 1373 1182 836 723 810 554 438 457 389 248 212 242 216 219 195 247 209
1603 1506 1451 1450 1537 1516 1412 1416 1030 874 974 958 944 930 1256 1552 1414 1242 1016 940 1272 1216 1109 948 583 296 480 766 1165 1265 1306 1236 1772 2026 1968 1857 1918 2002 2098 2101 1842 2150 2680 3208 2975 2372 2527 2221 2188 2006 2662 2298 2660 2777 2412 2046 2007 2460 2097 2778 2949 2791 2121 2302 1723 1978 1581 1671 1456 1303 1105 956 706 780 728 560 529 457 350 240 236 286 267 277 453
1812 1432 1473 1568 1612 1607 1491 1305 1235 914 987 1197 1065 1057 1217 1410 1632 956 871 1425 1839 1719 1400 1246 1137 792 773 1066 1344 1296 1622 1591 2184 2155 1893 1752 1725 1696 1742 1792 1918 1846 2516 2607 2646 2508 2346 1992 2463 2413 2739 2878 2368 2818 2984 2476 2531 2583 2269 2323 2861 2231 1760 1883 1423 1891 1762 1373 1531 1335 1238 944 970 794 629 716 744 653 617 478 386 513 457 401 248
1824 1583 1375 1380 1577 1684 1539 1449 1373 1077 1135 1281 1504 1270 1093 1230 1450 911 302 533 1076 1189 1086 1128 900 743 869 962 1084 1350 1453 1782 2408 2362 2224 2308 2062 1890 1748 1603 1769 1846 2051 2780 3063 2761 2405 2217 2148 2164 2309 2736 2884 2796 2762 2739 2758 2603 2422 1861 1635 1459 1684 1422 1540 1545 1296 1346 1425 1387 1200 964 878 1021 907 768 622 527 615 611 568 472 367 294 259
1785 1682 1446 1341 1424 1632 1856 1790 1632 1478 1338 1377 1436 1392 1235 1278 1513 1361 1087 746 635 767 740 649 641 725 720 896 988 1300 1771 2154 2803 2690 2618 2372 2218 2329 2382 2402 2525 2537 2652 2610 3521 3353 2942 2561 2546 2058 2532 2613 2834 2717 2538 2240 2138 2250 2329 2196 1345 1171 1290 1296 1181 1180 1170 1130 1176 1198 1150 1031 918 850 1033 995 743 682 616 514 400 401 394 370 346
1918 1803 1800 1584 1504 1549 1623 1855 1928 1795 1740 1657 1713 1457 1302 1386 1335 1272 1262 1384 1170 917 796 744 716 782 876 897 1090 1418 1725 1975 2547 2636 2572 2817 2675 2582 2622 2500 2686 2754 2682 2751 3140 3308 3279 3002 2544 2902 2907 2708 2330 2341 2209 2096 2328 2443 2387 2120 1256 1399 1066 1012 963 918 793 828 856 949 1113 977 976 886 874 922 836 829 834 790 774 706 599 520 468
2055 1920 1894 1877 1683 1608 1759 1672 1629 1647 1702 1733 1763 1758 1564 1460 1354 1435 1430 1414 1216 1028 898 808 849 889 901 969 1018 1144 1246 1542 2063 2193 2638 3121 3211 3028 2927 2875 2648 2773 3008 3422 3342 3484 3275 3022 3157 2521 2839 2120 2373 2378 2434 1984 1936 1716 1962 1804 1429 1217 990 902 823 707 738 706 641 617 726 847 836 778 756 661 665 672 613 681 730 795 670 600 623
1876 1825 1798 2026 2098 2064 1947 1711 1600 1675 1737 1679 1863 1938 1914 1687 1586 1548 1352 1286 1074 931 914 794 772 931 1252 1301 1184 1203 1316 1396 1607 1932 2040 2695 3322 3312 3374 3351 3119 2979 2918 2985 2913 2983 3133 2856 2489 2674 2684 2571 2374 2048 2152 1848 1723 1734 1777 1588 1174 1208 904 746 638 714 748 733 522 518 539 532 500 576 456 495 479 448 452 452 486 542 525 519 509
2019 1855 1764 1728 1946 2056 2093 2045 1940 1830 1807 1891 2049 2120 2214 2013 1622 1481 1480 1509 1167 1026 792 800 819 922 1204 1600 1751 1585 1449 1437 1438 1579 2083 2416 2993 3298 3015 3144 3316 3266 3164 2411 2761 2913 3187 2940 2658 2590 2671 2595 2364 2246 1976 2080 2134 2116 2197 1962 1279 941 792 702 651 842 620 574 519 365 298 328 24 197 282 238 280 293 275 307 311 294 259 251 208
2239 2089 2017 1742 1714 1860 2003 2088 2215 2074 1976 1991 1974 2047 2130 2055 1829 1502 1599 1655 1577 1356 1112 983 1102 995 1220 1516 1972 1970 1629 1774 2115 2170 2062 2760 3237 3012 3424 3606 3641 3585 3711 3197 2920 3097 3300 2904 2797 2652 2529 2317 2225 2027 1630 1766 1717 1634 2195 1523 1124 924 792 751 710 696 616 513 432 356 291 1 4 67 4 223 199 128 22 0 17 16 16 16 13
2526 2684 2693 2454 2096 1793 1805 2056 2146 2250 2172 1968 1974 2122 1943 2028 2086 1617 1308 1381 1582 1447 1324 1344 1158 1156 1211 1611 1899 1858 2256 2763 3518 3883 3718 3426 3551 2803 2823 3626 4349 4044 3849 3578 3390 3208 3230 3081 2696 2426 2401 2101 1804 1815 1633 1697 1639 1842 2076 1317 635 574 546 597 782 571 12 309 473 417 16 20 230 13 131 134 110 54 8 0 0 0 0 0 0
2389 2690 2607 2401 2313 2164 1941 1754 1852 1963 1997 1854 2271 1262 1161 1130 1664 1790 1785 1769 1744 1613 1594 1522 1470 1400 1453 1547 1744 1751 3635 3623 3770 4082 3651 3367 3473 3096 2948 2909 3708 3883 3998 3285 3217 3184 3061 2946 2647 2475 2181 2046 1979 1966 1827 1546 1699 1745 1821 1608 734 632 492 306 265 1 16 407 505 5 220 18 17 14 19 11 14 44 15 1 0 0 0 0 0
2174 2093 2219 2360 2532 2353 2167 2030 1932 2023 1977 1715 1231 1209 1092 865 1153 1274 1433 1474 1678 1722 1772 1704 1488 1496 1664 1709 1762 1839 1991 3356 3869 4097 3718 3414 3204 2964 2614 2663 3242 3218 3274 4156 4282 3695 3435 2858 2671 2540 2184 2024 1976 1640 1404 1304 1624 2068 1997 1523 745 578 499 425 270 266 192 384 330 273 6 29 30 12 48 58 22 12 5 0 0 0 0 0 0
1887 2019 2189 1673 2139 2329 2383 2485 2402 2154 2130 1448 1309 1262 1126 877 768 1047 1278 1578 1657 1706 1686 1862 2082 1876 1667 1697 1742 1792 2552 3698 3779 3289 3925 4223 3196 2769 2704 2939 3045 2870 2642 2452 2511 3540 3288 2868 2413 2432 2244 2016 1585 1281 1320 1345 1562 1606 1558 1811 1523 761 524 398 2 260 379 284 259 223 159 10 24 17 45 16 9 1 0 0 4 0 0 0 0
1533 1872 1754 1625 2004 2472 2450 2378 2536 2642 2612 2235 1585 1495 1391 1161 895 760 1358 1525 1747 1762 1877 2168 2466 2737 2730 2593 2471 2504 2762 3724 3917 3388 3549 4973 4101 3379 3281 3262 3488 2790 2213 2265 2183 1980 2282 2549 2396 2300 2234 1613 762 1186 1090 792 1086 1048 1017 901 806 722 671 586 384 316 332 262 273 200 55 17 20 15 13 9 3 3 4 2 2 1 0 0 0
1130 1221 1653 1803 1969 2106 1524 1598 1926 2317 2282 1951 1860 1842 1694 1447 1150 896 1196 1332 1570 1650 1829 2191 2711 2938 3153 3251 3184 2970 3020 3405 3931 3807 3466 4765 4570 4074 3847 3751 3532 2758 2174 2258 2346 2177 2088 1592 1860 1608 1615 888 866 1071 849 607 751 957 833 683 513 460 453 390 231 296 294 188 184 157 24 22 14 6 8 5 9 4 2 2 1 0 0 0 0
447 827 1086 1289 1819 2092 1946 2455 1575 1718 1932 1787 1847 1844 1782 1518 1237 1121 1486 1720 1702 1683 1794 1965 2261 2879 3307 3396 3335 3309 3324 3226 3769 3229 3285 4426 4315 3819 3649 3475 3364 2433 2064 1587 1509 1359 1652 2391 1518 1576 1148 999 692 880 1228 900 831 379 326 455 329 259 265 222 304 326 318 148 173 128 87 12 8 2 8 8 6 8 4 2 2 1 1 0 0
314 392 821 941 1283 1823 1910 2178 1902 2084 1738 1818 1664 1673 1626 1540 1410 1524 1808 1704 2134 2145 2254 2262 2267 2677 3144 3447 3512 3120 3304 3515 3574 3128 2724 3693 3965 3738 3448 3273 2402 1854 1172 1236 1138 1053 1043 1030 987 950 748 352 154 76 100 167 248 110 124 188 170 228 349 293 274 269 218 160 144 137 96 23 9 1 4 15 6 7 1 1 1 1 0 0 0
148 288 608 731 876 1288 1401 1293 1945 1993 1417 1358 1451 1390 1413 1413 1388 1589 1972 2411 2679 2735 2705 2814 3013 2628 2570 2689 2923 3158 3191 3467 3714 3251 2618 3238 3170 2884 2888 2510 2168 1342 958 840 1006 958 929 884 904 850 603 310 90 69 71 147 101 66 61 71 82 139 175 146 178 132 127 126 101 56 57 4 7 9 14 12 2 1 0 0 0 0 0 0 0
85 178 205 512 685 857 1292 1104 1150 1093 1234 1196 1257 1208 1143 1109 1166 1334 1553 2280 2566 1888 2472 2208 1739 1693 1832 2158 2352 2424 2657 2796 3181 3018 2500 2627 2692 2765 2653 2442 2307 1763 1245 525 685 698 668 700 817 852 476 189 70 57 84 100 80 141 193 44 61 84 75 68 107 114 95 65 7 24 1 9 20 6 1 2 4 3 3 1 0 0 0 0 0
Wind_Speed
11 9 10 10 9 8 7 6 6 6 4 3 2 3 3 4 3 4 2 3 4 5 4 6 7 9 8 8 8 8 9 8 6 6 5 5 6 10 20 21 22 21 22 22 23 23 23 20 18 16 14 13 11 7 6 8 10 14 10 5 8 6 6 7 8 10 10 10 9 9 11 11 10 9 7 6 5 3 5 7 7 8 6 4 5
9 11 9 9 8 7 6 6 4 5 5 4 2 2 4 3 3 3 4 3 4 3 4 5 7 5 6 5 6 7 6 6 6 6 8 9 8 10 19 23 22 20 20 19 24 25 27 22 19 17 15 14 11 8 7 5 11 17 7 8 4 1 4 5 6 9 11 10 9 9 10 11 11 10 9 6 5 4 4 4 7 8 7 6 6
10 9 8 7 6 5 6 4 4 3 5 4 2 3 5 5 5 5 3 3 4 3 5 5 5 8 4 6 5 6 6 6 6 8 7 7 7 9 14 25 21 20 18 19 23 28 29 26 21 18 16 15 12 9 4 6 5 12 11 4 5 3 4 4 4 7 9 9 8 8 9 9 10 9 8 6 3 5 4 4 5 8 8 6 5
11 8 7 7 6 4 4 4 4 5 4 5 5 4 4 5 4 4 3 4 5 5 5 6 6 6 6 5 4 5 6 6 6 5 8 10 9 10 9 11 22 21 19 18 19 28 30 27 22 18 17 11 12 13 10 8 6 10 9 2 4 5 6 5 2 4 8 8 8 8 8 8 8 9 8 6 4 2 4 4 5 7 6 7 6
8 8 8 6 5 5 3 3 2 3 3 6 5 5 4 4 2 2 2 4 6 6 6 6 6 4 7 5 4 3 4 7 6 7 8 8 8 5 5 7 9 18 22 18 17 24 31 28 25 21 15 18 21 14 9 8 7 13 14 7 7 7 8 6 2 2 5 7 8 9 8 7 6 7 6 7 5 4 3 3 5 5 6 7 7
9 7 8 7 4 3 4 2 3 3 5 4 5 3 4 5 4 4 2 5 6 6 6 6 6 6 7 3 3 3 5 6 6 6 9 7 4 5 10 11 13 13 14 24 21 21 23 25 26 24 25 25 21 18 16 13 9 11 13 9 10 11 8 6 1 2 5 7 9 9 8 7 6 7 6 6 5 5 4 3 1 3 6 4 7
7 8 7 8 6 2 1 1 3 3 3 1 4 4 4 4 2 4 4 6 6 6 6 6 6 7 5 3 4 5 5 6 5 8 2 3 5 8 10 10 13 14 15 14 19 23 21 20 20 24 29 22 21 23 21 18 15 13 13 13 12 12 8 5 1 5 7 8 10 11 10 8 7 7 7 5 5 5 4 4 3 2 2 5 8
7 7 8 6 5 4 2 4 3 2 2 2 3 4 3 3 2 5 4 5 6 7 5 6 5 6 5 5 6 7 5 3 2 8 4 7 8 10 10 11 12 13 13 14 13 14 22 22 20 22 25 24 20 18 16 18 22 19 14 11 10 10 10 6 2 4 7 8 10 10 11 11 8 6 6 6 5 4 3 3 4 4 2 5 5
6 7 7 5 5 4 2 2 1 1 1 1 2 2 3 1 1 3 4 5 7 7 6 4 5 5 5 5 4 2 4 4 7 8 8 8 11 10 9 11 10 13 14 14 14 14 21 26 23 24 25 30 23 18 19 19 20 20 18 12 10 11 9 8 5 2 5 6 7 9 9 10 8 7 6 6 6 4 2 3 3 3 4 4 8
6 7 7 7 6 5 5 5 1 0 1 1 2 2 1 2 3 2 3 5 6 6 6 5 4 3 4 5 2 2 2 6 10 6 9 9 13 12 10 10 10 11 12 13 14 15 14 23 28 27 28 29 30 26 29 30 25 23 19 17 16 13 11 11 9 5 4 5 7 8 9 11 10 7 6 5 6 3 2 2 3 4 4 4 6
6 6 6 6 5 4 3 4 1 2 1 2 1 1 2 2 4 3 3 5 6 7 7 5 5 3 4 4 3 2 2 8 11 13 12 14 15 14 14 14 13 13 13 16 16 17 19 16 15 16 18 21 35 35 36 34 27 23 19 19 18 16 14 14 14 13 11 10 10 10 10 11 10 10 6 6 6 8 3 4 4 4 5 6 6
6 6 6 6 5 5 4 3 2 1 1 3 3 1 1 3 3 4 5 6 7 7 7 4 4 4 3 4 4 2 3 5 12 14 12 13 17 16 17 15 14 14 14 15 15 18 18 16 17 15 16 17 30 41 39 35 30 26 22 21 23 21 18 16 16 17 15 13 10 10 11 9 9 8 5 4 7 7 5 5 5 5 6 7 7
6 6 6 5 5 6 5 3 2 2 3 2 3 4 3 4 3 3 6 7 7 6 5 3 4 3 1 3 4 3 4 8 16 18 16 17 17 18 17 15 15 15 14 13 15 16 17 17 17 17 19 21 19 28 36 34 34 31 26 23 22 22 20 19 18 16 14 13 11 10 11 9 8 7 6 7 7 6 6 6 6 6 6 7 7
5 6 6 5 4 5 4 3 4 4 4 4 3 2 2 4 3 4 5 6 6 6 3 4 4 3 3 3 1 3 5 8 14 13 13 13 14 16 16 16 16 15 14 14 14 16 18 18 20 20 21 23 23 26 28 29 29 29 25 23 23 25 25 23 19 16 15 16 14 11 11 11 10 9 8 7 7 6 6 7 6 7 7 7 7
5 5 6 4 4 4 4 4 4 5 4 2 2 1 2 4 3 3 5 6 6 4 2 2 5 5 3 3 2 3 3 5 5 9 6 14 11 15 12 15 13 14 14 15 15 15 17 19 22 22 23 25 22 26 26 27 26 31 30 28 30 31 27 24 20 17 18 17 14 12 13 12 11 9 9 6 6 6 6 7 7 7 7 7 7
3 3 4 4 4 4 4 4 6 5 5 4 4 2 2 3 3 2 3 7 5 3 3 2 3 5 4 4 4 4 1 1 1 5 11 12 6 8 11 8 12 16 12 16 14 15 18 23 21 22 23 23 19 22 25 26 29 33 33 32 32 30 26 23 21 18 19 19 17 16 15 13 10 9 7 6 5 6 6 6 7 7 7 6 7
2 2 3 3 4 4 4 4 5 5 4 4 3 3 3 3 2 2 5 5 5 4 3 2 4 3 4 4 3 2 4 4 3 9 8 6 9 9 8 15 12 11 15 14 14 14 16 21 20 21 23 25 25 23 23 23 27 28 28 30 29 28 25 22 20 17 18 19 17 16 15 12 10 8 8 7 7 7 6 7 6 6 5 6 8
2 1 1 2 3 3 4 3 3 4 5 5 5 4 3 3 1 1 3 4 4 4 4 3 2 3 2 3 2 4 5 4 2 5 7 8 11 12 11 16 10 14 14 15 14 13 16 20 17 19 21 22 23 24 25 26 28 27 25 25 26 23 22 21 19 16 16 15 14 14 12 11 10 10 10 9 9 8 7 6 5 5 6 6 7
1 2 2 2 2 3 3 4 4 4 5 4 4 3 4 2 3 1 2 2 3 4 4 4 4 3 4 5 4 3 4 4 4 6 6 9 12 11 8 13 12 13 12 14 13 14 21 14 17 19 19 21 21 22 22 20 17 17 19 24 24 22 20 19 17 15 14 14 13 13 12 12 10 10 9 9 9 7 6 6 6 6 6 7 7
1 2 2 3 2 3 3 4 4 4 4 4 4 3 3 4 3 1 2 1 2 3 4 5 5 4 4 4 3 4 4 5 4 5 6 7 10 7 8 10 14 11 13 13 14 13 10 16 13 16 17 18 19 19 20 19 20 21 21 22 23 21 20 18 18 17 15 14 13 12 11 12 11 10 9 nan 9 7 7 7 7 7 8 8 8
2 1 2 1 2 2 3 3 4 4 4 4 3 2 1 0 1 1 1 0 1 2 3 4 4 5 5 3 5 4 4 3 3 3 2 5 7 7 6 6 11 15 13 11 6 8 9 10 15 14 15 15 16 17 16 17 18 18 19 20 21 20 18 18 18 17 15 13 13 11 10 10 10 9 8 8 nan nan 8 8 9 9 9 9 9
1 0 1 0 0 1 2 2 3 4 4 3 3 2 1 2 2 1 1 2 3 2 3 4 4 4 4 4 4 3 3 2 4 1 4 5 6 8 8 8 10 14 14 5 6 6 7 7 9 10 11 13 14 14 14 15 16 13 15 17 19 19 18 17 16 15 14 13 12 11 10 9 8 7 7 7 8 8 9 8 9 9 8 8 8
2 2 1 1 1 1 2 2 3 3 2 2 2 2 1 3 2 3 2 1 2 3 3 2 2 2 2 1 2 2 5 2 2 2 3 5 6 8 7 8 10 10 3 6 7 6 5 5 5 8 8 10 11 12 13 13 15 12 12 15 15 17 18 16 14 14 14 13 12 10 10 9 8 7 7 6 7 7 7 7 7 8 7 7 6
3 2 2 1 2 3 3 4 4 3 1 1 2 0 1 2 2 4 3 3 3 3 3 4 4 3 2 3 4 5 9 4 4 4 6 4 6 7 10 4 13 6 5 6 8 7 6 5 5 5 7 8 9 9 11 13 10 15 18 15 14 15 16 16 15 13 13 13 11 9 9 9 8 7 6 6 5 5 6 6 5 5 5 4 3
3 2 2 2 3 4 4 4 4 3 3 2 1 2 4 4 3 2 2 3 5 5 4 2 3 4 6 6 5 4 10 5 4 3 5 5 6 8 6 9 8 4 4 4 5 7 4 6 4 4 5 6 8 8 9 12 10 12 17 15 15 14 13 15 14 13 12 12 11 10 9 8 8 nan 6 6 6 5 5 4 3 4 3 1 2
3 2 2 3 3 4 4 4 4 3 2 2 3 3 4 3 3 2 2 4 5 5 4 2 2 2 3 4 5 6 5 8 5 4 2 4 7 9 5 7 3 2 3 4 5 5 7 6 5 4 3 4 5 6 8 8 9 11 15 11 15 13 12 12 13 13 12 11 10 9 8 8 7 6 6 6 5 4 4 3 2 3 3 2 2
5 4 3 3 3 5 4 3 2 2 2 2 2 3 4 4 3 3 3 5 5 5 5 3 3 4 4 4 6 5 6 7 8 6 7 4 4 6 7 5 4 1 2 2 4 5 3 8 5 4 3 3 3 4 6 6 8 12 11 12 12 15 14 11 12 12 12 11 10 nan 7 7 6 5 5 5 4 4 3 2 2 2 2 2 2
6 6 5 5 5 5 5 3 2 2 1 2 3 4 4 4 5 4 4 5 6 6 5 4 4 4 3 5 5 6 7 7 9 10 8 8 6 6 9 5 3 2 1 3 2 6 6 6 9 6 4 4 3 3 4 8 4 11 11 7 4 11 15 14 12 10 11 10 9 8 8 6 6 5 5 5 5 5 4 4 4 4 4 5 4
6 6 6 6 6 5 5 3 3 3 3 3 3 3 4 5 4 4 4 4 6 7 6 7 7 7 6 5 6 7 8 8 7 6 12 9 8 8 4 2 3 2 3 4 5 5 7 9 8 8 6 5 5 3 4 2 6 2 5 5 12 8 14 16 15 12 13 12 10 9 8 7 6 6 6 7 6 6 6 7 8 8 7 7 7
6 7 7 6 6 5 5 4 4 3 4 4 3 4 5 5 4 4 4 6 7 8 7 7 7 8 7 6 7 8 9 8 6 6 7 9 6 4 3 3 5 2 4 4 6 5 7 8 10 8 8 6 6 7 6 5 10 3 4 5 6 10 17 16 15 14 14 14 14 14 11 10 9 7 6 7 8 9 9 8 9 10 10 10 10
7 8 9 7 6 5 4 4 4 4 4 4 4 5 5 5 4 4 5 7 8 7 8 8 8 8 7 7 8 8 9 8 8 6 7 7 6 6 6 6 5 5 4 4 4 7 5 7 11 9 9 8 5 6 7 5 10 3 5 8 11 13 14 12 14 14 14 15 15 15 14 12 11 10 9 8 10 10 11 11 11 11 11 12 12
6 7 7 7 6 5 4 3 3 4 4 3 3 4 5 5 4 3 5 7 8 7 7 8 9 9 9 8 8 9 9 9 8 8 7 8 8 7 7 8 8 7 7 6 5 6 7 9 12 9 10 9 8 7 7 5 13 6 6 12 13 13 9 13 16 14 12 13 13 12 13 13 12 12 11 11 10 11 11 12 13 13 13 12 11
7 7 7 7 7 6 5 5 3 5 5 5 5 5 6 5 4 4 5 8 8 8 8 8 8 8 8 8 8 8 9 8 9 9 9 8 8 9 10 9 8 10 10 9 7 8 8 11 9 10 14 10 10 9 7 8 9 10 8 9 11 12 12 10 15 14 11 11 14 13 10 10 12 12 12 11 12 11 11 11 12 13 13 13 14
7 8 8 8 8 7 6 5 5 5 6 5 4 5 6 6 4 5 5 7 8 7 7 8 8 9 9 9 8 8 10 9 9 9 9 9 9 9 10 10 10 10 12 10 9 10 9 10 12 11 12 12 10 12 11 8 11 7 8 14 11 15 10 11 13 13 11 13 15 14 12 10 9 10 11 12 12 12 11 11 12 14 16 17 17
8 8 8 8 8 8 7 7 7 6 7 6 6 6 6 5 4 4 5 7 8 7 7 7 7 9 9 9 9 9 11 10 10 9 9 9 10 10 9 10 10 10 13 14 11 9 10 11 11 11 13 13 12 13 11 11 10 10 9 14 18 12 12 17 16 15 19 20 19 19 19 19 20 19 20 21 21 22 22 23 23 23 22 22 23
9 9 9 9 9 9 8 8 8 8 8 8 7 7 6 5 5 6 6 7 8 8 8 7 8 9 9 10 9 9 10 10 11 9 10 9 9 10 10 11 12 12 12 14 13 11 11 11 12 11 14 14 14 13 13 13 11 13 11 14 20 19 18 18 18 17 20 24 26 27 26 27 27 28 29 29 28 28 28 29 28 27 26 27 27
9 10 11 10 10 10 9 9 9 9 9 9 8 8 8 7 6 7 7 8 8 8 8 8 9 9 10 10 10 10 10 10 10 10 10 10 11 11 11 12 11 12 13 14 13 12 12 11 12 14 15 14 14 14 15 13 14 14 15 14 21 21 22 22 21 22 27 29 30 31 30 30 30 31 32 31 31 31 30 32 32 32 29 29 30
10 10 11 12 11 10 10 10 10 10 10 10 10 9 8 8 9 9 8 8 9 9 9 9 9 10 11 11 11 11 9 10 10 11 12 11 12 12 11 11 12 13 13 14 13 13 12 12 13 13 16 15 15 15 16 16 15 16 15 18 24 22 23 22 22 19 19 19 20 23 29 29 32 33 34 33 33 32 33 33 33 33 31 30 30
10 10 11 12 13 13 12 11 11 11 11 11 11 11 11 10 11 10 10 10 10 11 11 11 11 11 11 12 12 12 10 10 10 11 12 12 13 13 13 13 14 14 14 14 15 14 14 13 13 14 15 15 15 15 18 17 17 17 18 19 22 22 23 24 24 23 23 25 28 32 32 31 33 33 34 35 35 36 36 35 35 35 34 31 30
12 11 11 12 13 13 13 13 13 13 13 12 12 12 12 12 11 11 11 11 11 11 11 12 12 12 12 12 13 12 11 12 11 12 14 14 15 14 14 16 16 16 15 15 16 15 15 15 15 16 17 17 17 16 18 19 19 20 20 19 23 26 27 26 27 27 26 26 27 28 31 32 nan 35 37 37 37 37 37 38 38 38 37 34 33
16 14 13 13 13 13 14 14 14 14 14 13 13 13 13 12 12 12 12 11 11 11 12 11 12 12 13 13 13 13 13 12 12 14 16 18 18 16 17 17 17 17 18 17 17 16 16 17 18 19 19 19 19 18 19 20 20 20 23 24 30 32 31 30 29 28 28 29 28 29 28 nan nan nan nan 33 34 37 nan nan nan nan nan nan nan
17 19 17 16 15 14 14 15 15 16 15 16 15 15 17 16 15 14 14 13 12 12 12 12 12 12 12 13 13 11 12 14 15 16 18 18 17 16 18 19 19 19 19 19 18 18 18 18 19 20 20 20 21 22 21 22 24 26 28 30 32 33 34 34 31 29 nan 29 30 30 nan nan 30 nan 33 36 35 nan nan nan nan nan nan nan nan
17 19 19 16 16 16 15 16 15 17 17 17 21 26 24 20 18 16 15 15 14 13 12 12 12 12 12 13 13 14 16 16 16 17 17 18 19 17 17 17 19 20 20 20 20 20 20 20 20 21 21 22 22 24 24 24 25 28 27 29 33 33 34 35 34 nan nan 31 33 nan 32 nan nan nan nan nan nan nan nan nan nan nan nan nan nan
15 17 18 18 18 18 18 17 17 18 18 20 29 28 25 20 18 17 16 16 16 15 14 13 14 14 14 14 15 16 16 17 17 18 17 18 19 18 17 18 18 18 19 22 22 22 22 22 22 22 23 24 25 25 25 25 26 28 29 30 33 34 35 36 37 36 34 34 36 37 nan nan nan nan nan nan nan nan nan nan nan nan nan nan nan
16 17 21 19 18 19 19 19 19 19 19 28 31 30 26 24 22 19 19 18 17 17 16 16 16 15 16 17 17 18 19 19 18 17 18 21 21 20 19 19 18 18 26 29 26 24 26 24 23 23 24 26 25 26 26 27 29 27 30 30 32 34 37 39 nan 41 40 36 38 38 37 nan nan nan nan nan nan nan nan nan nan nan nan nan nan
15 16 18 18 19 21 21 21 21 22 20 33 32 32 30 27 25 23 21 20 19 18 18 18 19 19 19 20 21 21 21 23 22 21 22 23 24 23 22 21 20 25 30 28 28 27 22 24 25 26 28 30 27 28 30 29 28 28 28 33 39 41 41 42 44 45 42 37 39 42 nan nan nan nan nan nan nan nan nan nan nan nan nan nan nan
14 15 17 17 21 23 21 20 19 23 28 45 29 33 33 30 28 26 22 21 21 20 20 20 21 21 22 23 23 23 23 24 25 25 24 25 26 26 25 24 23 25 25 25 24 25 27 26 27 28 32 32 32 33 34 33 30 33 35 41 45 46 49 48 48 46 45 41 39 40 nan nan nan nan nan nan nan nan nan nan nan nan nan nan nan
16 17 17 17 18 20 22 24 22 23 32 36 29 34 36 30 32 27 24 23 21 20 21 22 23 24 24 25 25 26 26 26 28 30 27 28 27 27 27 26 26 28 30 36 35 35 34 31 31 32 35 42 44 39 38 39 43 46 49 49 49 51 51 49 49 46 45 40 41 46 nan nan nan nan nan nan nan nan nan nan nan nan nan nan nan
16 17 17 17 19 19 19 22 21 27 29 33 34 37 39 35 31 27 24 23 23 22 24 24 25 26 26 28 28 28 29 27 30 34 31 31 28 28 28 29 29 28 30 34 39 40 40 44 46 47 49 50 50 nan nan 48 48 50 51 51 50 49 50 51 49 47 47 47 46 45 nan nan nan nan nan nan nan nan nan nan nan nan nan nan nan
16 18 19 19 19 19 19 20 21 22 34 39 39 41 40 38 32 29 26 25 24 25 27 28 32 32 28 27 27 29 29 28 35 35 35 33 28 27 27 30 31 28 30 35 37 40 46 49 48 49 52 55 nan nan nan 51 52 nan nan nan nan 51 52 52 52 51 50 48 48 nan nan nan nan nan nan nan nan nan nan nan nan nan nan nan nan
nan 17 18 20 21 21 21 22 29 25 32 35 37 37 38 37 33 30 29 28 29 29 29 36 34 34 29 29 30 27 29 36 38 36 36 33 29 29 29 29 30 30 31 36 38 39 43 47 48 48 50 54 nan nan nan 54 nan 47 49 nan nan nan nan nan 54 54 nan nan nan nan nan nan nan nan nan nan nan nan nan nan nan nan nan nan nan
Wind_Direction
160 157 166 161 163 157 157 150 159 156 161 113 152 133 124 122 127 114 84 79 71 48 35 49 42 32 28 34 36 34 37 34 35 49 43 23 12 358 357 4 6 6 9 4 352 1 9 17 29 32 30 32 33 27 13 2 328 296 300 256 242 255 246 241 229 223 225 216 200 200 216 227 235 233 260 301 297 318 344 348 355 350 3 31 35
158 165 162 166 158 165 158 156 158 155 128 162 156 127 127 138 114 112 152 138 96 58 54 56 53 53 39 38 41 45 35 27 21 21 15 11 12 18 5 3 5 8 11 7 353 7 18 25 30 32 30 29 35 45 45 3 286 268 262 305 359 354 280 256 230 213 221 217 196 185 198 210 219 230 223 275 316 343 354 338 348 344 352 10 16
159 166 163 166 165 163 161 177 139 135 167 138 162 155 153 134 157 161 154 130 104 108 82 70 56 59 37 46 31 38 24 359 13 24 16 18 26 18 10 360 6 8 14 16 4 7 18 23 24 24 23 24 33 40 18 278 285 301 310 339 24 30 339 293 237 209 208 211 194 187 194 203 208 213 219 206 306 356 5 346 348 2 355 358 2
162 160 167 173 167 163 186 164 150 161 151 151 154 174 144 136 165 151 164 103 97 83 78 72 65 59 64 59 43 37 4 0 21 16 27 31 25 18 11 1 1 7 11 21 21 9 11 18 21 16 17 22 35 29 360 348 307 276 260 284 38 27 8 351 287 205 214 205 191 188 195 195 202 207 209 197 180 22 19 6 3 10 353 6 2
168 162 175 167 169 168 169 179 150 145 144 153 158 135 121 116 109 117 100 112 94 87 82 82 72 61 70 57 52 30 9 25 22 23 31 39 34 358 26 349 16 3 0 4 21 20 10 12 17 7 348 20 32 23 17 13 338 315 331 347 11 19 19 10 353 200 212 208 189 185 179 185 196 205 202 184 170 139 105 59 34 12 355 6 17
172 173 163 171 176 172 163 184 177 164 158 131 117 126 132 135 138 117 96 96 98 95 87 81 79 70 69 59 45 9 24 31 26 31 41 18 14 11 18 20 9 5 0 350 12 24 23 18 15 357 355 15 24 26 23 16 327 321 329 347 13 13 16 19 0 167 181 183 179 173 169 167 191 203 199 176 157 133 114 121 89 354 358 13 37
181 178 169 169 169 172 178 178 213 170 118 138 117 124 109 110 128 114 126 91 87 85 76 75 79 76 70 60 42 31 25 31 15 46 67 265 337 358 3 16 12 9 12 18 19 23 25 25 18 6 353 19 22 20 17 355 332 354 355 1 9 6 12 26 337 202 182 182 180 172 168 168 172 186 188 175 151 127 123 131 127 112 3 9 45
187 188 173 172 165 178 204 224 212 119 132 157 121 97 114 109 157 111 100 111 96 81 71 67 74 80 66 54 38 24 28 354 332 254 3 350 353 7 4 23 26 14 17 35 42 34 15 21 19 6 359 347 25 26 21 349 351 359 10 10 3 359 10 31 72 194 200 197 187 176 169 168 175 170 183 178 150 130 142 161 164 160 94 34 41
196 196 182 179 173 175 206 273 251 138 180 93 76 101 114 117 51 92 102 93 93 96 89 81 77 76 84 86 76 43 26 333 277 339 345 353 9 21 20 41 38 34 33 41 46 48 20 20 20 17 7 337 358 10 8 3 7 10 14 20 20 23 37 61 84 175 212 189 186 174 165 165 170 161 182 168 146 154 150 135 129 128 121 60 34
204 202 190 184 191 194 193 225 227 201 179 152 131 164 96 101 103 61 104 98 87 96 94 92 86 91 104 101 96 61 263 243 256 356 358 351 28 27 39 60 58 52 44 47 53 50 53 25 22 24 26 360 355 23 29 27 24 30 33 46 46 49 63 72 83 100 130 143 160 166 166 171 168 155 173 150 138 124 121 114 96 99 97 84 59
211 208 201 205 210 229 228 254 216 262 170 165 141 216 161 154 116 109 65 74 87 89 96 92 94 110 118 115 102 63 339 292 319 5 358 15 38 51 66 67 63 56 45 41 45 51 48 51 42 31 32 6 359 15 29 42 49 50 41 44 54 69 77 73 79 89 99 117 137 155 160 165 156 150 151 152 131 108 96 102 84 79 73 68 59
218 214 205 206 212 226 241 254 288 281 216 158 180 154 229 112 93 122 112 86 70 73 80 101 98 125 124 87 98 76 271 268 298 22 7 29 54 65 68 72 65 59 52 40 39 51 55 52 45 34 32 360 7 10 26 34 37 37 39 48 61 73 72 72 81 88 96 103 124 142 153 156 145 129 141 125 100 84 81 77 76 70 64 60 56
227 217 218 218 215 219 229 236 255 255 230 183 189 177 205 136 105 88 106 91 86 85 83 103 121 84 60 115 151 99 331 320 328 23 36 39 55 66 63 67 65 57 47 38 43 48 56 55 51 45 37 25 37 23 22 24 32 40 41 45 56 68 75 80 85 88 90 106 127 131 134 137 134 126 101 90 77 75 69 74 71 70 66 58 57
232 227 220 220 224 225 234 240 251 245 225 208 190 195 170 103 128 123 77 88 89 92 121 124 95 147 148 154 81 75 295 291 353 52 53 54 64 65 64 62 57 55 44 40 36 44 48 49 55 54 49 44 38 49 37 36 40 44 50 58 66 73 76 85 86 90 99 105 103 110 122 115 105 97 92 79 76 77 78 76 72 67 64 58 58
232 235 226 221 217 214 220 249 250 249 241 215 217 188 123 101 103 113 111 93 85 72 88 128 141 155 147 111 181 128 307 349 321 56 52 76 83 78 64 74 50 53 43 38 34 40 48 50 53 56 54 55 38 45 46 42 43 45 53 59 63 71 76 82 87 85 92 98 101 106 102 99 95 93 88 93 92 88 79 74 70 70 63 59 59
227 228 223 217 213 212 218 234 255 241 227 209 192 163 115 90 95 111 109 100 93 104 117 165 136 164 155 173 145 107 71 258 174 36 49 66 88 100 98 71 51 60 34 45 34 33 46 50 51 52 53 50 44 56 44 46 36 43 51 53 59 67 79 84 83 88 92 97 96 95 93 91 88 84 81 90 81 68 67 67 70 66 68 68 69
237 224 205 218 209 210 207 222 239 234 213 202 181 133 137 138 193 123 86 105 102 109 120 134 149 199 149 162 134 147 180 172 164 10 70 108 113 101 85 97 69 49 41 39 39 28 45 55 46 51 54 51 45 42 55 44 46 50 56 60 65 71 78 86 88 84 82 85 85 83 80 73 68 67 68 62 55 53 50 60 64 80 86 84 85
280 292 287 229 232 208 212 205 218 220 195 168 166 176 142 112 107 118 114 82 108 114 133 155 140 166 96 90 119 143 138 130 97 29 39 13 56 69 80 73 77 63 37 31 33 35 42 52 49 50 52 52 54 51 41 44 49 55 60 62 59 65 71 75 79 76 73 75 72 67 65 61 54 48 50 45 48 45 49 41 50 58 73 82 87
319 329 320 296 238 225 213 188 175 187 190 168 157 138 127 124 198 191 108 159 133 125 137 152 182 147 165 175 148 132 132 116 85 82 55 44 51 62 60 87 68 59 66 18 22 30 48 46 49 48 50 51 51 53 57 54 54 54 47 47 57 61 64 67 67 66 62 62 66 67 65 64 62 56 57 57 55 61 51 55 56 63 71 75 75
181 304 326 320 280 240 222 176 159 162 168 153 152 153 155 194 227 145 156 141 123 133 156 173 181 165 168 163 167 189 164 193 138 122 13 65 83 56 16 64 80 60 56 46 22 29 32 36 43 52 50 50 52 54 53 57 54 45 46 42 47 53 56 60 60 61 60 57 59 60 67 71 70 72 70 nan 76 66 70 65 64 68 72 74 73
188 252 314 352 299 245 232 180 154 153 150 147 145 128 78 174 289 329 339 355 128 174 186 184 180 172 188 178 208 214 222 267 228 239 355 56 79 77 79 77 91 61 44 55 29 40 43 34 30 43 45 53 54 60 59 60 56 53 40 35 43 43 48 51 56 61 60 59 59 60 62 66 76 82 84 92 nan nan 76 72 69 72 73 75 77
244 245 284 45 108 248 223 174 139 138 138 129 124 130 211 302 350 15 254 213 225 198 187 202 197 190 179 203 243 207 213 268 290 264 23 36 72 82 56 67 74 60 41 32 44 38 41 42 35 37 46 50 55 55 59 59 64 64 44 37 41 42 39 43 50 55 57 57 59 63 60 64 64 70 85 91 92 90 84 78 78 78 78 80 79
204 282 348 356 125 183 183 169 144 147 143 126 106 100 328 331 351 324 314 296 257 233 202 210 211 222 176 199 246 199 252 255 318 330 42 60 74 70 92 82 79 68 66 27 37 29 22 45 36 44 45 52 55 54 57 58 63 40 33 45 46 43 38 36 42 50 54 58 56 59 67 64 57 56 62 70 80 81 80 79 82 88 91 90 85
174 218 293 323 221 197 179 166 171 151 148 151 114 114 220 254 285 292 295 301 285 254 221 202 188 202 188 208 232 222 286 331 326 340 7 34 41 50 55 61 66 47 42 22 11 18 3 14 23 40 53 55 58 59 49 56 37 12 43 28 47 51 41 37 40 39 51 57 59 56 59 60 60 56 51 58 46 54 65 69 75 83 86 81 79
173 161 273 312 250 220 199 188 193 180 163 183 192 196 211 216 238 280 287 276 276 278 266 259 220 209 211 211 217 219 286 321 295 333 357 3 14 38 40 56 69 47 3 31 23 355 352 350 11 12 44 50 51 53 54 49 41 29 71 11 33 43 45 39 32 32 37 45 47 49 44 48 51 nan 47 38 38 35 36 41 52 63 60 55 54
153 152 182 295 262 246 224 201 200 205 195 191 206 221 240 240 259 279 309 281 274 276 273 267 269 250 247 237 224 234 226 276 283 315 342 336 18 25 3 74 106 124 3 352 4 12 344 334 337 1 12 54 56 48 57 49 28 12 53 56 14 16 32 35 31 26 25 27 39 41 38 37 35 32 26 27 26 25 27 21 21 13 12 342 350
167 174 166 207 239 239 239 221 233 234 223 223 230 247 252 263 255 261 256 278 278 266 263 264 262 259 245 246 241 237 233 268 293 297 318 335 335 359 335 72 180 144 240 335 339 300 309 316 312 326 344 19 37 52 71 73 336 3 18 49 3 1 358 16 15 18 9 15 20 nan 36 33 30 13 6 12 12 7 356 356 336 320 314 321 327
194 191 197 191 204 214 231 218 219 247 252 237 229 240 267 265 264 271 284 274 276 277 267 265 271 264 250 245 244 243 241 238 281 303 307 312 307 281 16 69 195 176 173 252 261 279 285 282 303 320 319 311 5 11 30 54 334 354 29 38 309 2 353 356 360 357 351 357 360 4 7 17 9 2 352 352 353 346 335 328 314 308 307 302 310
200 208 203 211 197 200 206 215 241 220 230 239 240 246 247 251 258 263 256 267 265 265 256 256 256 256 260 256 247 249 249 246 246 269 305 318 309 342 304 167 227 185 191 230 250 244 259 272 273 288 284 300 319 317 331 340 304 38 7 356 334 12 359 347 345 337 334 337 337 339 344 347 348 342 332 329 322 319 327 317 309 301 299 295 296
204 200 210 217 215 198 199 205 216 234 223 231 247 246 253 243 248 256 258 254 257 255 260 260 265 270 265 264 257 250 252 257 255 258 270 293 279 279 297 266 270 255 223 211 231 240 237 251 261 269 283 275 286 308 304 305 290 40 314 328 285 302 3 340 333 326 327 332 331 335 336 334 330 325 313 304 297 296 300 295 297 297 294 291 294
212 203 203 209 225 231 209 210 223 222 231 218 230 236 250 244 243 253 268 267 265 267 268 272 269 264 258 254 260 259 255 253 263 272 270 269 274 274 276 276 263 270 264 244 228 250 232 236 270 268 257 262 260 268 282 296 297 297 296 296 303 322 334 322 324 327 329 331 331 330 328 324 324 320 312 300 293 291 291 291 290 286 290 294 295
212 221 213 207 219 233 246 226 220 239 242 240 243 253 249 240 239 246 264 280 274 269 262 265 263 269 269 264 264 266 267 267 268 269 274 282 282 283 279 280 295 284 276 273 258 238 234 232 232 254 269 254 258 257 262 278 293 321 286 294 307 305 312 315 326 330 342 332 320 316 315 315 315 317 316 310 303 301 297 297 295 292 291 289 290
206 215 223 228 223 224 223 239 235 231 233 225 240 246 253 250 243 241 242 259 269 269 270 267 268 269 271 266 260 262 263 266 270 271 273 275 279 284 288 290 289 292 290 279 269 259 246 239 249 240 252 242 259 260 264 268 283 296 303 287 295 298 292 314 321 335 332 322 304 297 307 313 311 307 305 307 304 300 298 296 294 291 285 277 271
211 209 217 233 244 241 237 226 225 232 249 247 226 245 252 256 258 258 266 274 274 268 258 267 279 273 272 276 276 270 278 280 274 272 271 266 266 267 272 275 273 272 280 275 267 260 255 254 245 244 252 257 254 263 257 252 264 268 277 281 253 279 290 266 264 276 270 287 294 293 294 287 285 278 284 290 297 302 300 294 282 272 267 264 260
230 221 225 227 237 249 245 235 228 218 227 237 239 231 240 249 252 247 257 274 278 276 280 283 282 281 282 279 277 277 272 272 275 276 271 264 257 253 253 260 265 268 272 280 273 262 256 256 259 265 277 264 256 259 258 259 261 263 263 272 285 281 281 283 283 279 266 276 280 283 279 278 278 277 274 271 269 268 265 262 262 261 262 261 262
231 237 229 230 241 240 237 236 232 220 223 225 224 234 240 241 247 250 244 245 256 267 271 269 276 280 281 278 274 270 271 277 276 264 258 262 264 265 263 260 260 257 260 270 276 266 260 258 264 260 254 255 268 269 269 269 262 261 260 274 270 275 270 270 275 277 273 269 268 270 276 277 278 277 273 271 267 266 266 266 263 261 259 259 259
241 238 242 234 233 245 240 238 234 230 225 225 223 221 230 241 242 245 248 251 254 257 257 259 260 261 263 270 272 272 273 272 274 275 272 271 268 262 258 262 265 266 269 272 277 277 270 266 265 271 272 273 272 268 268 266 271 278 273 266 271 280 280 279 282 281 274 270 267 268 267 267 269 271 270 270 269 269 269 268 268 266 264 262 260
244 242 244 244 241 239 235 231 231 232 230 225 225 222 223 229 237 240 240 245 250 251 256 259 262 263 264 267 269 268 265 268 269 266 263 262 262 262 261 257 257 261 264 269 271 269 268 268 268 271 280 279 280 282 279 281 277 278 277 278 275 285 285 283 281 282 283 281 288 284 278 274 270 269 269 269 269 270 270 269 265 264 265 265 264
246 245 248 250 246 243 239 234 230 233 234 233 232 231 225 221 225 230 234 237 241 243 249 254 254 258 263 264 266 269 267 263 262 264 265 266 267 265 264 261 261 262 265 266 267 266 267 266 270 273 275 280 279 279 288 289 287 283 284 287 283 287 283 284 285 284 285 281 275 276 279 279 277 276 273 272 271 269 269 269 266 263 262 262 262
244 240 241 250 254 250 247 245 243 240 242 237 238 237 237 232 233 235 235 235 238 244 250 258 263 264 265 264 262 263 266 265 264 263 261 263 266 267 266 265 262 262 260 259 264 265 264 265 266 273 278 279 285 284 284 289 290 293 289 289 291 285 281 282 288 290 292 293 294 295 296 294 nan 286 283 280 278 275 273 270 266 264 261 260 262
240 240 237 236 242 250 253 252 251 250 249 250 245 249 249 247 243 243 245 245 249 249 252 254 260 263 264 267 266 265 266 267 264 257 255 255 260 262 263 265 266 264 265 262 264 263 265 264 267 274 278 281 281 284 286 289 288 283 286 284 284 288 287 286 286 288 292 293 293 290 287 nan nan nan nan 280 284 283 nan nan nan nan nan nan nan
237 231 232 235 236 242 248 253 255 253 251 250 255 258 248 247 255 253 254 255 255 255 256 258 261 263 265 266 267 270 269 279 281 279 275 272 271 263 259 263 267 268 266 264 264 265 265 266 268 270 274 277 279 281 279 277 277 281 284 285 287 289 287 284 281 281 nan 291 291 286 nan nan 286 nan 285 281 275 nan nan nan nan nan nan nan nan
242 236 233 237 242 244 248 251 254 256 255 251 261 267 260 243 237 245 250 253 258 259 260 262 261 259 260 265 264 275 283 279 281 286 283 284 284 283 274 261 259 264 264 264 263 263 262 266 266 269 270 270 271 270 272 273 276 280 282 284 289 290 290 290 287 nan nan 287 288 nan 282 nan nan nan nan nan nan nan nan nan nan nan nan nan nan
255 245 245 244 242 244 249 253 255 255 254 259 269 270 267 268 258 247 249 252 257 261 265 264 265 267 267 267 267 265 269 275 275 281 287 288 286 285 283 279 277 272 264 259 263 266 267 265 266 267 267 269 269 271 272 274 277 282 282 283 288 289 288 286 287 287 288 289 288 285 nan nan nan nan nan nan nan nan nan nan nan nan nan nan nan
248 249 250 243 248 250 248 249 250 255 255 266 274 271 271 269 270 260 254 254 254 259 262 266 268 268 268 269 269 269 269 284 280 274 274 278 282 283 283 283 280 281 269 264 258 262 268 271 270 270 270 267 269 268 268 272 274 279 283 283 286 287 285 284 nan 286 286 287 285 282 284 nan nan nan nan nan nan nan nan nan nan nan nan nan nan
255 251 259 263 255 252 247 242 249 252 254 263 269 271 271 270 268 266 259 261 263 263 265 267 268 271 272 271 271 271 273 277 275 273 273 275 277 278 278 277 276 279 276 277 276 274 272 271 272 272 271 272 272 271 273 273 276 278 277 280 279 277 279 280 283 284 284 284 285 286 nan nan nan nan nan nan nan nan nan nan nan nan nan nan nan
257 258 256 257 261 265 262 260 251 252 252 254 261 268 269 269 269 269 263 261 265 268 270 272 273 272 273 272 272 270 270 272 272 274 275 278 278 277 278 278 278 278 278 280 280 281 279 276 275 275 273 275 276 277 276 275 273 268 269 278 280 280 279 279 278 280 281 282 284 283 nan nan nan nan nan nan nan nan nan nan nan nan nan nan nan
257 254 254 256 255 259 263 262 256 258 260 271 270 270 269 269 267 265 266 265 262 263 265 267 269 269 270 271 269 269 269 269 275 281 277 276 278 279 280 280 278 276 270 257 255 255 261 270 274 275 275 271 267 265 267 274 274 272 273 274 277 281 282 280 280 281 281 279 281 283 nan nan nan nan nan nan nan nan nan nan nan nan nan nan nan
261 259 257 256 259 259 260 259 259 257 259 272 269 264 261 259 263 262 262 262 263 265 264 262 261 263 265 267 267 265 267 268 275 286 285 282 278 279 278 279 279 279 277 270 264 262 265 265 267 271 274 275 274 nan nan 268 276 280 281 279 280 281 280 280 281 281 278 280 282 281 nan nan nan nan nan nan nan nan nan nan nan nan nan nan nan
265 260 253 254 258 257 257 261 259 256 258 256 257 259 259 256 252 256 260 262 263 262 263 262 255 249 251 258 262 263 263 265 276 286 285 285 279 278 278 279 279 281 279 275 273 270 271 269 271 274 277 279 nan nan nan 275 281 nan nan nan nan 281 278 278 279 278 278 279 282 nan nan nan nan nan nan nan nan nan nan nan nan nan nan nan nan
nan 264 259 255 253 257 257 253 254 255 263 259 254 255 256 255 255 256 256 257 256 253 255 253 256 260 252 258 260 261 261 263 280 284 287 288 283 278 279 278 277 279 276 277 274 275 276 277 277 278 280 284 nan nan nan 277 nan 279 282 nan nan nan nan nan 276 274 nan nan nan nan nan nan nan nan nan nan nan nan nan nan nan nan nan nan nan